LUCH-5B (38977 NORAD) Tracking and Keplerian Element Data

This shows tracking and keplerian element data for the satellite.

Feedback or suggestion? Click here.




ElementValue
Catalog38977
NameLUCH-5B
Epoch Orbit4276
Epoch Day160.00952109
Epoch Year2024
RAAN56.79
Inclination8.8699
Eccentricity0.0003442
Argument of Perigee88.6633
Mean Anonmoly98.553
Mean Motion1.0027194
Decay Rate-1.42E-06
L11 38977U 12061A 24160.00952109 -.00000142 00000+0 00000+0 0 9999
L22 38977 8.8699 56.7900 0003442 88.6633 98.5530 1.00271940 42763



Live tracking and technical data element details for LUCH-5B (NORAD 38977). LUCH-5B can be tracked NOW for your location showing map with azimuth and elevation plus other details from your city location.







IsCatalogInMostPopularTable: catalog: 38977, numindb: 598
Update: records affected: 1



GetName: 38977 LUCH-5B

Hit Count: updated at: Mon, 17 Jun 2024 23:34:30 GMT